20061021,185934,1.529,32.955600,-117.305000,18.7300,33.4950,0.2900,68370,0.0,18.850,0.010,-0.003,2128.38,0.0,0.231, NaN, NaN, NaN,0.000,   NaN,16.41,1010.14,88.55,16.55,289.7,297.8,2.9,1.7,275.1,281.7,2.8,1.6,64.7, NaN,33.0,320.4,NaN,1161457178,NaN,2,0.3,068378,   NaN,347.1,     NaN,      NaN,NaN,NaN,NaN,18.855, NaN,NaN,-0.2, NaN, NaN
20061021,210625,1.467,32.949540,-117.279980,18.7700,33.4390,1.1000,75982,0.0,19.952,0.010,-0.003,1995.90,0.0,0.214, NaN, NaN, NaN,0.000,   NaN,18.18,1009.14,89.09,18.64,5.8,1.6,2.6,2.6,292.2,287.7,2.5,2.5,20.5, NaN,31.0,324.0,NaN,1161464788,NaN,2,0.3,075988,   NaN,288.6,     NaN,      NaN,NaN,NaN,NaN,19.957, NaN,NaN,-0.3, NaN, NaN
20061021,233629,1.179,33.240160,-117.463830,18.8200,33.4630,0.5600,84981,6.3,18.980,33.494,45.081,1358.38,0.0,0.859, NaN, NaN, NaN,23.876,   NaN,18.97,1008.66,87.35,19.18,343.9,343.0,3.9,4.6,267.9,267.1,3.8,4.5,23.0, NaN,28.0,286.8,NaN,1161473788,NaN,2,0.2,084988,   NaN,284.5,     NaN,      NaN,NaN,NaN,NaN,18.985, NaN,NaN,0.0, NaN, NaN
20061022,024844,1.657,32.913560,-117.395070,19.2000,33.4930,0.2200,96521,6.0,19.365,33.530,45.498, 0.00,0.0,0.442, NaN, NaN, NaN,23.805,   NaN,18.28,1010.33,92.61,18.30,339.4,337.9,3.0,3.3,212.4,210.8,3.1,3.4,656.9, NaN,34.0,82.0,NaN,1161485328,NaN,2,0.3,010128,   NaN,232.0,     NaN,      NaN,NaN,NaN,NaN,19.370, NaN,NaN,-0.2, NaN, NaN
20061022,064546,1.627,32.861980,-117.531420,19.1500,33.4950,0.1500,110740,3.4,19.322,33.531,45.458, 0.00,0.0,0.322, NaN, NaN, NaN,23.817,   NaN,17.01,1011.76,92.22,16.99,100.5,100.1,3.1,2.3,11.4,12.1,3.2,2.3,831.6, NaN,31.0,277.5,NaN,1161499548,NaN,2,0.3,024348,   NaN,268.2,     NaN,      NaN,NaN,NaN,NaN,19.327, NaN,NaN,-0.2, NaN, NaN
20061022,111053,1.642,32.680830,-117.871920,18.4200,33.4880,0.2100,126640,3.3,18.445,33.516,44.587, 0.00,0.0,0.473, NaN, NaN, NaN,24.026,   NaN,16.95,1011.45,92.94,16.75,76.6,61.6,2.6,2.1,322.3,307.7,2.6,2.0,631.4, NaN,30.0,239.2,NaN,1161515448,NaN,2,0.4,040249,   NaN,241.6,     NaN,      NaN,NaN,NaN,NaN,18.449, NaN,NaN,0.1, NaN, NaN
20061022,173353,1.356,32.514180,-118.212830,19.0500,33.5160,  NaN,149620,3.1,19.250,33.541,45.399,2040.52,0.0,0.405, NaN, NaN, NaN,23.843,   NaN,16.80,1013.03,89.95,17.03,47.0,38.8,3.6,3.4,329.6,321.6,3.7,3.5,1674.0, NaN,31.0,124.8,NaN,1161538428,NaN,2,0.1,063229,   NaN,283.7,     NaN,      NaN,NaN,NaN,NaN,19.255, NaN,NaN,-0.2, NaN, NaN
20061022,203633,1.418,32.346600,-118.555140,18.8700,33.4570,0.1900,160581,3.6,19.075,33.495,45.174,1937.31,0.0,0.297, NaN, NaN, NaN,23.852,   NaN,17.42,1012.01,85.70,17.64,33.2,23.0,6.1,6.2,327.6,317.2,6.0,6.1,1361.0, NaN,32.0,313.4,NaN,1161549389,NaN,2,0.2,074189,   NaN,293.6,     NaN,      NaN,NaN,NaN,NaN,19.080, NaN,NaN,0.2, NaN, NaN
20061023,003557,1.784,32.180200,-118.893100,19.2400,33.5940,0.1300,174951,3.7,19.466,33.630,45.718,204.60,0.0,0.348, NaN, NaN, NaN,23.855,   NaN,17.59,1010.98,85.45,17.45,43.7,32.9,6.6,6.5,325.9,315.3,6.7,6.6,1485.0, NaN,31.0,113.3,NaN,1161563759,NaN,2,0.4,002159,   NaN,283.6,     NaN,      NaN,NaN,NaN,NaN,19.471, NaN,NaN,-0.2, NaN, NaN
20061023,045727,1.548,32.013320,-119.233340,18.7800,33.5080,0.1200,190641,3.6,18.981,33.545,45.142, 0.00,0.0,0.272, NaN, NaN, NaN,23.914,   NaN,17.22,1012.38,89.72,17.24,49.2,38.3,5.0,4.6,335.7,325.1,5.2,4.8,1602.0, NaN,30.0,115.9,NaN,1161579449,NaN,2,0.3,017849,   NaN,288.6,     NaN,      NaN,NaN,NaN,NaN,18.986, NaN,NaN,-0.3, NaN, NaN
20061023,085530,1.804,31.846800,-119.572940,18.9200,33.7300,0.2400,204922,3.6,19.108,33.750,45.513, 0.00,0.0,0.651, NaN, NaN, NaN,24.038,   NaN,17.01,1011.97,88.61,16.83,356.0,351.8,4.2,4.6,316.6,312.2,4.2,4.5,1910.0, NaN,28.0,198.7,NaN,1161593732,NaN,2,0.3,032132,   NaN,318.8,     NaN,      NaN,NaN,NaN,NaN,19.113, NaN,NaN,-0.2, NaN, NaN
20061023,153436,1.654,31.510040,-120.242440,17.8400,33.4570,  NaN,228873,3.6,18.037,33.493,44.166,280.02,0.0,0.468, NaN, NaN, NaN,24.109,   NaN,16.28,1012.23,85.51,16.16,11.5,6.8,6.4,7.0,332.3,327.4,6.4,7.0,3939.0, NaN,34.0,289.5,NaN,1161617682,NaN,2,0.2,056083,   NaN,320.0,     NaN,      NaN,NaN,NaN,NaN,18.041, NaN,NaN,-0.2, NaN, NaN
20061023,200437,1.597,31.191180,-120.897740,19.0600,33.3760,0.1000,245075,3.6,19.254,33.412,45.247,1484.70,0.0,0.163, NaN, NaN, NaN,23.743,   NaN,17.15,1012.47,76.31,17.25,32.2,22.2,6.5,6.5,332.3,322.6,6.6,6.6,3890.0, NaN,31.0,187.2,NaN,1161633882,NaN,2,0.2,072283,   NaN,300.5,     NaN,      NaN,NaN,NaN,NaN,19.259, NaN,NaN,-0.2, NaN, NaN
20061024,013720,2.171,30.846780,-121.589640,18.4900,33.3230,0.1400,265034,3.6,18.737,33.354,44.676, 2.44,0.0,0.319, NaN, NaN, NaN,23.829,   NaN,16.74,1011.88,76.70,16.57,23.3,18.4,4.9,4.7,334.6,329.8,5.0,4.8,4106.0, NaN,33.0,191.8,NaN,1161653841,NaN,2,0.2,005841,   NaN,310.1,     NaN,      NaN,NaN,NaN,NaN,18.741, NaN,NaN,-0.2, NaN, NaN
20061024,071902,2.050,30.513330,-122.257800,18.2500,33.2480,0.0800,285532,3.7,18.439,33.283,44.305, 0.00,0.0,0.204, NaN, NaN, NaN,23.850,   NaN,16.67,1013.12,73.49,16.57,21.0,13.6,5.9,6.1,325.3,317.6,5.7,5.9,NaN, NaN,35.0,310.9,NaN,1161674341,NaN,2,0.4,026341,   NaN,303.8,     NaN,      NaN,NaN,NaN,NaN,18.443, NaN,NaN,-0.2, NaN, NaN
20061024,125353,1.743,30.180520,-122.922860,19.4700,33.5550,0.0800,305623,3.6,19.652,33.595,45.858, 0.00,0.0,0.147, NaN, NaN, NaN,23.781,   NaN,17.07,1013.03,61.84,17.00,354.1,349.7,4.6,5.2,305.6,301.0,4.7,5.3,NaN, NaN,33.0,210.1,NaN,1161694431,NaN,2,0.4,046431,   NaN,308.7,     NaN,      NaN,NaN,NaN,NaN,19.657, NaN,NaN,-0.3, NaN, NaN
20061024,183622,1.741,29.847590,-123.585820,19.4800,33.4920,0.1000,326175,3.3,19.689,33.529,45.813,1511.85,0.0,0.140, NaN, NaN, NaN,23.721,   NaN,17.90,1014.63,59.65,18.05,347.1,342.9,4.1,4.7,292.7,288.4,3.9,4.5,NaN, NaN,35.0,312.2,NaN,1161714981,NaN,2,0.3,066981,   NaN,305.9,     NaN,      NaN,NaN,NaN,NaN,19.694, NaN,NaN,-0.2, NaN, NaN
20061025,001337,1.955,30.416600,-123.997220,19.2700,33.3940,  NaN,346404,3.3,19.463,33.421,45.461,201.36,0.0,0.247, NaN, NaN, NaN,23.697,   NaN,17.30,1013.41,66.60,17.37,352.3,350.1,5.4,6.3,339.9,337.7,5.6,6.4,NaN, NaN,29.0,149.3,NaN,1161735212,NaN,2,0.5,000812,   NaN,346.1,     NaN,      NaN,NaN,NaN,NaN,19.468, NaN,NaN,-0.2, NaN, NaN
20061025,061644,2.625,30.752060,-123.332380,18.4400,33.3360,0.1000,368193,3.3,18.623,33.372,44.588, 0.00,0.0,0.202, NaN, NaN, NaN,23.872,   NaN,16.61,1015.21,71.67,16.39,39.6,30.4,3.3,3.3,19.2,9.3,3.0,3.1,4039.0, NaN,35.0,334.8,NaN,1161757001,NaN,2,0.6,022602,   NaN,336.4,     NaN,      NaN,NaN,NaN,NaN,18.627, NaN,NaN,-0.2, NaN, NaN
20061025,121507,2.157,31.085160,-122.660530,18.4700,33.4350,0.1200,389694,3.2,18.645,33.472,44.729, 0.00,0.0,0.299, NaN, NaN, NaN,23.943,   NaN,16.07,1014.47,73.24,15.89,3.2,356.1,3.9,4.3,336.5,329.6,3.9,4.4,4026.0, NaN,32.0,139.1,NaN,1161778502,NaN,2,0.6,044103,   NaN,334.5,     NaN,      NaN,NaN,NaN,NaN,18.649, NaN,NaN,0.6, NaN, NaN
20061025,183103,1.890,31.418260,-121.990340,18.1000,33.3420,0.1700,412254,3.3,18.305,33.378,44.287,1089.44,0.0,0.395, NaN, NaN, NaN,23.955,   NaN,15.76,1016.27,77.47,15.83,329.0,329.0,5.1,5.7,290.7,291.2,5.0,5.7,NaN, NaN,34.0,15.9,NaN,1161801062,NaN,2,0.6,066663,   NaN,324.7,     NaN,      NaN,NaN,NaN,NaN,18.309, NaN,NaN,-0.2, NaN, NaN
20061026,002524,1.991,31.752360,-121.312700,18.5900,33.3680,0.1400,433515,3.4,18.778,33.405,44.777,294.53,0.0,0.321, NaN, NaN, NaN,23.858,   NaN,16.13,1014.19,83.31,16.12,14.8,8.6,8.1,8.8,326.5,320.3,7.8,8.5,3688.0, NaN,30.0,355.3,NaN,1161822323,NaN,2,0.5,001523,   NaN,312.7,     NaN,      NaN,NaN,NaN,NaN,18.783, NaN,NaN,-0.2, NaN, NaN
20061026,061608,2.369,32.085180,-120.638200,17.7800,33.4650,0.2000,454566,3.4,17.966,33.498,44.102, 0.00,0.0,0.617, NaN, NaN, NaN,24.130,   NaN,16.72,1015.79,85.48,16.42,350.8,347.9,6.2,6.8,301.6,298.8,6.4,7.0,3836.0, NaN,31.0,113.7,NaN,1161843373,NaN,2,0.5,022573,   NaN,310.2,     NaN,      NaN,NaN,NaN,NaN,17.970, NaN,NaN,-0.2, NaN, NaN
20061026,121757,1.464,32.418440,-119.962100,18.7200,33.5880,0.2500,476264,3.3,18.899,33.627,45.161, 0.00,0.0,0.604, NaN, NaN, NaN,23.998,   NaN,16.56,1015.36,85.84,16.32,52.8,47.7,4.0,3.8,6.5,1.7,4.1,3.9,887.8, NaN,42.0,199.9,NaN,1161865073,NaN,2,0.3,044273,   NaN,309.8,     NaN,      NaN,NaN,NaN,NaN,18.904, NaN,NaN,-0.2, NaN, NaN
20061026,191018,1.547,32.656500,-119.484630,18.7400,33.5370,0.2200,501013,3.2,18.985,33.570,45.177,2151.48,0.0,0.413, NaN, NaN, NaN,23.932,   NaN,16.99,1019.74,84.75,17.17,81.8,78.5,1.8,1.2,38.2,36.5,1.8,1.3,NaN, NaN,35.0,256.2,NaN,1161889819,NaN,2,0.4,069020,   NaN,311.2,     NaN,      NaN,NaN,NaN,NaN,18.990, NaN,NaN,-0.1, NaN, NaN
20061026,235048,1.591,32.916690,-118.934380,18.2100,33.4480,0.1900,517842,3.3,18.263,33.481,44.370,1125.26,0.0,0.664, NaN, NaN, NaN,24.044,   NaN,19.91,1018.39,69.38,19.77,61.5,55.3,3.7,3.4,3.8,357.8,3.7,3.4,NaN, NaN,30.0,270.0,NaN,1161906650,NaN,2,0.2,085850,   NaN,300.3,     NaN,      NaN,NaN,NaN,NaN,18.267, NaN,NaN,-0.1, NaN, NaN
20061027,051605,1.421,33.184300,-118.386920,17.9000,33.4390,0.1900,537352,3.2,17.934,33.475,44.045, 0.00,0.0,0.581, NaN, NaN, NaN,24.121,   NaN,20.97,1020.07,37.62,20.87,2.7,358.0,5.3,6.6,322.8,318.0,5.1,6.4,NaN, NaN,29.0,324.5,NaN,1161926160,NaN,2,0.3,018961,   NaN,319.7,     NaN,      NaN,NaN,NaN,NaN,17.938, NaN,NaN,-0.2, NaN, NaN
20061027,082650,1.676,33.251020,-118.250860,18.6100,33.4610,1.1200,548803,2.9,18.809,33.496,44.917, 0.00,0.0,1.867, NaN, NaN, NaN,23.920,   NaN,20.49,1020.02,46.44,20.53,13.9,8.0,5.9,6.5,23.8,17.9,6.0,6.7,341.9, NaN,28.0,188.2,NaN,1161937611,NaN,2,0.3,030411,   NaN,10.0,     NaN,      NaN,NaN,NaN,NaN,18.814, NaN,NaN,-0.1, NaN, NaN
20061027,125816,1.248,33.419440,-117.905200,18.5200,33.4850,0.3100,565084,3.0,18.716,33.523,44.858, 0.00,0.0,0.672, NaN, NaN, NaN,23.964,   NaN,18.46,1020.13,72.76,18.49,240.4,252.7,2.7,0.8,305.0,324.4,2.7,0.8,622.6, NaN,29.0,244.2,NaN,1161953891,NaN,2,0.2,046691,   NaN,68.1,     NaN,      NaN,NaN,NaN,NaN,18.720, NaN,NaN,-0.1, NaN, NaN
20061027,154020,1.544,33.494680,-117.747480,18.1400,33.4300,0.8500,574814,2.9,18.307,33.465,44.394,497.53,0.0,1.787, NaN, NaN, NaN,24.022,   NaN,19.25,1020.77,25.24,18.84,96.1,80.9,0.7,0.5,43.4,23.5,0.6,0.5,22.9, NaN,30.0,121.5,NaN,1161963621,NaN,2,0.3,056421,   NaN,319.0,     NaN,      NaN,NaN,NaN,NaN,18.311, NaN,NaN,-0.1, NaN, NaN
20061027,183912,1.481,33.484940,-117.770100,18.0100,33.4210,1.2200,585549,3.0,18.102,33.452,44.180,1702.74,0.0,3.001, NaN, NaN, NaN,24.062,   NaN,20.45,1019.70,40.56,20.70,24.0,14.6,3.5,3.9,317.4,308.4,3.6,4.1,70.9, NaN,31.0,108.2,NaN,1161974357,NaN,2,0.2,067157,   NaN,294.4,     NaN,      NaN,NaN,NaN,NaN,18.106, NaN,NaN,-0.2, NaN, NaN
20061027,203851,1.451,33.673100,-118.081600,17.7500,33.3910,1.9700,592720,3.0,18.184,33.433,44.237,1952.57,0.0,3.878, NaN, NaN, NaN,24.027,   NaN,21.65,1018.58,36.06,21.55,304.5,313.2,7.2,6.8,251.2,259.8,7.1,6.7,20.8, NaN,29.0,303.3,NaN,1161981527,NaN,2,0.1,074327,   NaN,306.9,     NaN,      NaN,NaN,NaN,NaN,18.188, NaN,NaN,1.4, NaN, NaN
20061027,234304,1.492,33.884120,-118.446400,18.9400,33.4540,5.1300,603778,3.0,18.761,33.478,44.849,1235.44,0.0,5.013, NaN, NaN, NaN,23.918,   NaN,20.71,1017.61,57.51,21.19,4.6,359.1,2.5,2.9,293.3,287.5,2.4,2.8,31.5, NaN,29.0,274.9,NaN,1161992586,NaN,2,0.3,085386,   NaN,289.2,     NaN,      NaN,NaN,NaN,NaN,18.766, NaN,NaN,1.5, NaN, NaN
20061028,003615,1.311,33.889660,-118.490100,18.3800,33.4630,  NaN,606969,3.0,18.202,33.472,44.300,149.65,0.0,2.922, NaN, NaN, NaN,24.052,   NaN,20.38,1017.23,59.74,20.74,13.2,8.4,6.0,6.6,284.5,279.8,6.1,6.7,56.9, NaN,29.0,115.7,NaN,1161995777,NaN,2,0.2,002177,   NaN,271.1,     NaN,      NaN,NaN,NaN,NaN,18.206, NaN,NaN,1.4, NaN, NaN
20061028,031752,1.289,33.823500,-118.627660,18.6700,33.5100,0.2400,616659,3.0,18.874,33.542,45.034, 0.00,0.0,0.633, NaN, NaN, NaN,23.939,   NaN,19.29,1017.33,68.02,19.51,19.3,13.0,7.7,8.5,285.9,279.7,7.8,8.7,656.9, NaN,26.0,96.3,NaN,1162005467,NaN,2,0.2,011867,   NaN,267.5,     NaN,      NaN,NaN,NaN,NaN,18.879, NaN,NaN,1.2, NaN, NaN
20061028,074754,1.821,33.656460,-118.974170,17.2400,33.4550,0.3800,632869,2.9,17.406,33.491,43.555, 0.00,0.0,1.289, NaN, NaN, NaN,24.260,   NaN,17.83,1016.99,77.30,17.70,16.6,22.4,1.5,1.3,307.1,313.7,1.4,1.2,756.3, NaN,27.0,260.4,NaN,1162021677,NaN,2,0.2,028078,   NaN,288.8,     NaN,      NaN,NaN,NaN,NaN,17.410, NaN,NaN,1.8, NaN, NaN
20061028,120947,1.629,33.490440,-119.318220,17.2900,33.4450,0.4200,648580,2.9,17.487,33.481,43.621, 0.00,0.0,1.088, NaN, NaN, NaN,24.233,   NaN,17.83,1015.83,76.27,17.65,104.3,114.5,3.5,2.5,344.9,355.7,3.5,2.6,1658.0, NaN,29.0,248.7,NaN,1162037387,NaN,2,0.3,043788,   NaN,238.9,     NaN,      NaN,NaN,NaN,NaN,17.491, NaN,NaN,0.3, NaN, NaN
20061028,171118,1.921,33.325800,-119.667380,17.3000,33.4500,0.4300,666670,2.9,17.547,33.485,43.683,1854.05,0.0,0.768, NaN, NaN, NaN,24.222,   NaN,16.61,1016.95,89.91,16.81,27.4,20.2,4.9,4.7,297.8,290.4,4.7,4.5,NaN, NaN,30.0,316.6,NaN,1162055477,NaN,2,0.3,061878,   NaN,270.6,     NaN,      NaN,NaN,NaN,NaN,17.551, NaN,NaN,-0.2, NaN, NaN
20061028,200345,1.472,33.157640,-120.005380,17.4900,33.4950,0.3700,677019,2.9,17.798,33.528,43.976,1967.69,0.0,0.870, NaN, NaN, NaN,24.194,   NaN,17.22,1015.92,85.75,17.57,358.4,353.7,5.0,5.4,297.1,292.6,5.2,5.6,1216.0, NaN,31.0,121.8,NaN,1162065828,NaN,2,0.4,072228,   NaN,298.6,     NaN,      NaN,NaN,NaN,NaN,17.802, NaN,NaN,-0.2, NaN, NaN
20061029,000142,2.173,32.991060,-120.346680,17.4400,33.4630,0.7500,691290,2.9,17.675,33.497,43.821,795.76,0.0,2.265, NaN, NaN, NaN,24.200,   NaN,17.72,1014.87,78.16,17.84,357.3,353.0,6.8,7.7,294.4,290.2,7.0,8.0,727.5, NaN,30.0,126.5,NaN,1162080098,NaN,2,0.4,000098,   NaN,296.6,     NaN,      NaN,NaN,NaN,NaN,17.679, NaN,NaN,-0.2, NaN, NaN
20061029,060724,1.857,32.656880,-121.032420,18.1500,33.4910,0.2100,713241,3.0,18.333,33.526,44.490, 0.00,0.0,0.451, NaN, NaN, NaN,24.061,   NaN,17.68,1015.79,79.79,17.50,0.3,355.2,7.1,8.0,304.7,299.5,6.9,7.8,3808.0, NaN,29.0,312.9,NaN,1162102048,NaN,2,0.4,022048,   NaN,304.1,     NaN,      NaN,NaN,NaN,NaN,18.337, NaN,NaN,0.3, NaN, NaN
20061029,120035,1.812,32.324430,-121.712940,17.5600,33.3660,0.1900,734430,2.9,17.752,33.396,43.776, 0.00,0.0,0.434, NaN, NaN, NaN,24.104,   NaN,16.65,1015.39,90.33,16.15,14.8,9.6,6.9,7.6,299.4,294.1,6.7,7.4,4037.0, NaN,37.0,282.8,NaN,1162123238,NaN,2,0.5,043239,   NaN,284.4,     NaN,      NaN,NaN,NaN,NaN,17.756, NaN,NaN,0.2, NaN, NaN
20061029,184648,1.820,31.989260,-122.393760,17.2500,33.0940,0.1400,758800,3.0,17.443,33.126,43.165,2081.74,0.0,0.258, NaN, NaN, NaN,23.971,   NaN,16.87,1016.50,74.86,16.89,330.9,330.2,2.9,3.4,275.7,275.3,2.7,3.3,NaN, NaN,31.0,298.7,NaN,1162147609,NaN,2,0.3,067610,   NaN,307.6,     NaN,      NaN,NaN,NaN,NaN,17.447, NaN,NaN,-0.1, NaN, NaN
20061029,231756,1.722,31.656220,-123.067220,17.6200,33.3180,0.2000,775070,3.0,17.852,33.353,43.823,1555.98,0.0,0.682, NaN, NaN, NaN,24.047,   NaN,17.14,1014.95,70.53,17.26,47.0,37.6,7.3,7.1,332.2,322.8,7.2,6.9,4155.0, NaN,35.0,261.2,NaN,1162163879,NaN,2,0.8,083879,   NaN,282.9,     NaN,      NaN,NaN,NaN,NaN,17.856, NaN,NaN,-0.2, NaN, NaN
20061030,055303,1.661,31.323320,-123.743000,17.5300,33.2110,0.1900,798773,3.0,17.744,33.248,43.595, 0.00,0.0,0.437, NaN, NaN, NaN,23.993,   NaN,16.74,1017.02,67.57,16.74,353.6,352.0,6.4,7.2,312.5,310.8,6.2,7.1,4035.0, NaN,33.0,276.0,NaN,1162187581,NaN,2,0.3,021181,   NaN,317.4,     NaN,      NaN,NaN,NaN,NaN,17.748, NaN,NaN,-0.2, NaN, NaN
20061030,114651,1.264,31.909730,-124.168780,17.1900,33.1470,0.2200,820004,2.9,17.387,33.182,43.177, 0.00,0.0,0.532, NaN, NaN, NaN,24.028,   NaN,15.91,1016.18,67.95,15.82,0.4,357.5,5.7,6.4,327.7,324.7,5.7,6.5,4219.0, NaN,45.0,169.2,NaN,1162208811,NaN,2,0.3,042411,   NaN,326.9,     NaN,      NaN,NaN,NaN,NaN,17.391, NaN,NaN,-0.2, NaN, NaN
20061030,181356,1.818,32.244560,-123.493140,17.3200,33.1730,0.1800,843228,3.0,17.514,33.208,43.328,824.30,0.0,0.438, NaN, NaN, NaN,24.017,   NaN,15.55,1017.63,68.24,15.62,11.3,4.4,4.2,4.6,327.2,320.5,4.4,4.8,4170.0, NaN,33.0,128.7,NaN,1162232035,NaN,2,0.5,065635,   NaN,315.8,     NaN,      NaN,NaN,NaN,NaN,17.518, NaN,NaN,0.5, NaN, NaN
20061031,001343,1.815,32.576720,-122.814560,17.6500,33.2120,0.1600,864817,3.0,17.850,33.250,43.698,239.60,0.0,0.328, NaN, NaN, NaN,23.969,   NaN,15.52,1015.39,67.82,15.33,45.5,36.2,8.2,7.7,355.3,346.1,8.4,7.9,4267.0, NaN,31.0,178.5,NaN,1162253626,NaN,2,0.3,000826,   NaN,309.4,     NaN,      NaN,NaN,NaN,NaN,17.854, NaN,NaN,-0.2, NaN, NaN
20061031,062420,2.402,32.911620,-122.128820,17.4500,33.1810,  NaN,887048,3.0,17.640,33.219,43.461, 0.00,0.0,0.360, NaN, NaN, NaN,23.996,   NaN,14.90,1016.83,69.75,14.83,322.1,324.8,6.6,7.5,293.8,296.4,6.8,7.7,4189.0, NaN,30.0,196.9,NaN,1162275856,NaN,2,0.4,023056,   NaN,329.6,     NaN,      NaN,NaN,NaN,NaN,17.644, NaN,NaN,-0.1, NaN, NaN
20061031,120624,1.695,33.244560,-121.445360,16.4200,33.1000,0.2600,907578,2.9,16.617,33.138,42.393, 0.00,0.0,0.797, NaN, NaN, NaN,24.175,   NaN,14.09,1015.19,71.78,13.58,351.0,348.2,6.6,7.5,346.8,343.8,6.5,7.4,3817.0, NaN,28.0,220.6,NaN,1162296387,NaN,2,0.4,043587,   NaN,354.0,     NaN,      NaN,NaN,NaN,NaN,16.621, NaN,NaN,-0.2, NaN, NaN
20061031,185034,1.851,33.578120,-120.756160,15.8100,33.4220,0.7900,931828,2.8,16.021,33.458,42.190,1087.85,0.0,1.654, NaN, NaN, NaN,24.557,   NaN,14.05,1017.10,67.64,13.97,0.8,355.9,7.7,8.7,314.9,310.0,7.6,8.6,2839.0, NaN,28.0,315.4,NaN,1162320637,NaN,2,0.4,067837,   NaN,314.9,     NaN,      NaN,NaN,NaN,NaN,16.025, NaN,NaN,0.9, NaN, NaN
20061031,232145,1.723,33.742700,-120.415440,15.4400,33.2820,0.2200,948097,2.6,15.692,33.319,41.722,1550.19,0.0,2.590, NaN, NaN, NaN,24.524,   NaN,13.86,1014.45,71.64,13.87,5.7,1.7,9.8,11.0,325.5,321.3,9.7,10.9,1064.0, NaN,30.0,253.3,NaN,1162336907,NaN,2,0.3,084107,   NaN,319.5,     NaN,      NaN,NaN,NaN,NaN,15.696, NaN,NaN,-0.4, NaN, NaN
20061101,023549,1.753,33.877880,-120.134000,16.7100,33.4970,1.7000,959737,2.6,16.915,33.532,43.130, 0.00,0.0,3.838, NaN, NaN, NaN,24.408,   NaN,13.76,1014.75,80.01,13.60,2.3,358.0,8.0,9.0,310.0,305.6,7.9,8.9,101.1, NaN,34.0,313.3,NaN,1162348547,NaN,2,0.2,009347,   NaN,308.6,     NaN,      NaN,NaN,NaN,NaN,16.919, NaN,NaN,-0.2, NaN, NaN
20061101,102715,1.399,34.020040,-118.843280,17.5500,33.4420,1.3900,988027,2.6,17.730,33.476,43.849, 0.00,0.0,2.842, NaN, NaN, NaN,24.170,   NaN,13.70,1015.08,76.14,13.71,134.3,141.0,3.3,2.6,27.3,33.8,3.3,2.5,21.9, NaN,29.0,97.8,NaN,1162376837,NaN,2,0.1,037637,   NaN,254.1,     NaN,      NaN,NaN,NaN,NaN,17.734, NaN,NaN,0.4, NaN, NaN
20061101,141140,1.485,34.177380,-119.505520,17.8300,33.4500,1.9000,1001488,2.6,18.035,33.484,44.153, 6.31,0.0,2.994, NaN, NaN, NaN,24.103,   NaN,15.27,1016.15,81.23,15.21,329.5,317.7,0.9,1.0,259.4,246.5,0.9,0.9,139.0, NaN,29.0,256.9,NaN,1162390297,NaN,2,0.2,051097,   NaN,289.3,     NaN,      NaN,NaN,NaN,NaN,18.039, NaN,NaN,-0.2, NaN, NaN
20061101,180226,1.548,34.225660,-119.411220,18.0600,33.4730,0.9300,1015339,2.6,18.228,33.504,44.363,980.71,0.0,1.725, NaN, NaN, NaN,24.071,   NaN,16.84,1017.19,75.92,17.43,137.8,141.3,1.5,1.5,291.6,295.1,1.6,1.6,34.1, NaN,27.0,160.0,NaN,1162404147,NaN,2,0.4,064948,   NaN,151.2,     NaN,      NaN,NaN,NaN,NaN,18.232, NaN,NaN,-0.2, NaN, NaN
20061101,190242,1.217,34.263770,-119.332540,17.4100,33.4480,11.4600,1018957,2.8,17.611,33.478,43.736,1894.65,0.0,20.770, NaN, NaN, NaN,24.201,   NaN,16.86,1016.95,73.99,17.28,359.7,338.7,0.7,1.0,237.2,213.1,0.6,0.9,19.7, NaN,28.0,272.2,NaN,1162407767,NaN,2,0.3,068567,   NaN,239.1,     NaN,      NaN,NaN,NaN,NaN,17.615, NaN,NaN,-0.2, NaN, NaN
20061101,220038,1.435,34.402950,-119.796900,17.4000,33.4390,1.5700,1029629,2.7,17.663,33.472,43.780,1679.24,0.0,2.085, NaN, NaN, NaN,24.184,   NaN,16.47,1015.34,68.89,16.83,26.5,17.6,4.6,4.8,261.9,252.9,4.5,4.7,23.1, NaN,29.0,213.6,NaN,1162418437,NaN,2,0.1,079238,   NaN,234.1,     NaN,      NaN,NaN,NaN,NaN,17.667, NaN,NaN,-0.2, NaN, NaN
20061102,003518,2.188,34.276000,-120.023540,18.1000,33.4890,0.8500,1038908,2.7,18.319,33.519,44.468,141.53,0.0,1.667, NaN, NaN, NaN,24.059,   NaN,16.43,1014.23,82.94,16.31,10.4,5.5,11.2,12.7,278.8,274.0,11.3,12.8,586.9, NaN,29.0,30.5,NaN,1162427717,NaN,2,0.3,002118,   NaN,270.2,     NaN,      NaN,NaN,NaN,NaN,18.323, NaN,NaN,-0.2, NaN, NaN
20061102,044710,1.361,34.464460,-120.487320,16.1200,33.4370,1.0900,1054019,2.7,16.365,33.469,42.532, 0.00,0.0,2.606, NaN, NaN, NaN,24.487,   NaN,16.82,1015.75,57.86,16.43,342.4,341.3,3.0,3.2,309.0,308.0,2.8,3.1,24.8, NaN,29.0,327.5,NaN,1162442826,NaN,2,0.2,017226,   NaN,327.6,     NaN,      NaN,NaN,NaN,NaN,16.369, NaN,NaN,-0.2, NaN, NaN
20061102,060038,1.353,34.450220,-120.522060,15.9300,33.4350,1.2200,1058429,2.7,16.171,33.469,42.346, 0.00,0.0,2.950, NaN, NaN, NaN,24.531,   NaN,16.60,1016.36,63.33,16.24,37.2,28.4,5.0,4.8,332.5,323.5,4.9,4.7,72.6, NaN,29.0,272.5,NaN,1162447236,NaN,2,0.2,021636,   NaN,293.9,     NaN,      NaN,NaN,NaN,NaN,16.175, NaN,NaN,-0.2, NaN, NaN
20061102,093621,1.418,34.316480,-120.800100,15.9100,33.4620,1.9300,1071367,2.7,16.153,33.496,42.360, 0.00,0.0,4.121, NaN, NaN, NaN,24.557,   NaN,15.56,1017.28,89.65,15.32,24.2,15.6,5.2,5.2,339.0,330.2,5.1,5.1,795.8, NaN,29.0,308.9,NaN,1162460176,NaN,2,0.3,034576,   NaN,313.6,     NaN,      NaN,NaN,NaN,NaN,16.157, NaN,NaN,0.3, NaN, NaN
20061102,140204,1.723,34.152140,-121.145460,17.0200,33.1810,0.1600,1087319,2.7,17.244,33.218,43.083, 0.00,0.0,0.398, NaN, NaN, NaN,24.090,   NaN,16.57,1017.39,95.59,16.40,180.1,177.6,0.7,1.4,58.1,55.0,0.9,1.6,2174.0, NaN,27.0,248.3,NaN,1162476126,NaN,2,0.3,050526,   NaN,236.3,     NaN,      NaN,NaN,NaN,NaN,17.248, NaN,NaN,-0.1, NaN, NaN
20061102,200115,1.711,33.827860,-121.820860,17.4500,33.1940,0.1400,1108869,2.9,17.724,33.229,43.554,1484.30,0.0,0.320, NaN, NaN, NaN,23.983,   NaN,17.75,1017.90,95.19,17.80,329.5,329.9,4.0,4.8,247.9,248.3,3.8,4.6,3627.0, NaN,29.0,279.3,NaN,1162497677,NaN,2,0.3,072077,   NaN,279.0,     NaN,      NaN,NaN,NaN,NaN,17.728, NaN,NaN,-0.1, NaN, NaN
20061103,020156,2.036,33.485900,-122.527040,17.3300,33.2310,0.1400,1130510,2.9,17.547,33.265,43.426, 0.00,0.0,0.407, NaN, NaN, NaN,24.053,   NaN,17.64,1016.61,95.69,17.44,358.0,354.1,5.3,6.0,275.2,271.3,5.2,5.9,3989.0, NaN,28.0,291.0,NaN,1162519316,NaN,2,0.3,007317,   NaN,277.8,     NaN,      NaN,NaN,NaN,NaN,17.551, NaN,NaN,-0.1, NaN, NaN
20061103,080456,1.582,33.150640,-123.219390,18.0300,33.2990,0.1000,1152288,2.8,18.254,33.333,44.186, 0.00,0.0,0.205, NaN, NaN, NaN,23.934,   NaN,17.90,1017.58,98.02,17.84,13.8,10.4,3.9,4.0,268.7,265.1,3.7,3.8,4243.0, NaN,31.0,217.0,NaN,1162541096,NaN,2,0.3,029097,   NaN,254.5,     NaN,      NaN,NaN,NaN,NaN,18.258, NaN,NaN,1.4, NaN, NaN
20061103,182556,1.536,32.811200,-123.919660,17.8500,33.1860,  NaN,1189550,2.4,18.120,33.221,43.924,1213.46,0.0,0.266, NaN, NaN, NaN,23.880,   NaN,18.25,1019.23,97.60,18.27,4.3,359.0,3.5,3.9,260.4,255.3,3.3,3.8,240.0, NaN,31.0,298.0,NaN,1162578357,NaN,2,0.3,066357,   NaN,258.9,     NaN,      NaN,NaN,NaN,NaN,18.124, NaN,NaN,-0.2, NaN, NaN
20061103,232411,1.706,33.384950,-124.320720,17.7900,33.1120,0.1300,1207439,2.6,18.022,33.145,43.740,743.66,0.0,0.321, NaN, NaN, NaN,23.846,   NaN,16.85,1018.23,97.59,16.92,33.7,25.0,2.9,3.0,342.4,334.3,3.1,3.2,4590.0, NaN,33.0,132.7,NaN,1162596248,NaN,2,0.6,084248,   NaN,310.9,     NaN,      NaN,NaN,NaN,NaN,18.026, NaN,NaN,-0.2, NaN, NaN
20061104,052144,9.504,33.719520,-123.636300,16.2900,33.2280,0.2200,1228899,2.5,16.534,33.264,42.458, 0.00,0.0,0.901, NaN, NaN, NaN,24.291,   NaN,15.91,1020.17,90.75,15.82,12.3,7.1,5.6,6.4,352.0,347.1,5.9,6.7,4170.0, NaN,28.0,161.7,NaN,1162617708,NaN,2,0.8,019308,   NaN,340.6,     NaN,      NaN,NaN,NaN,NaN,16.538, NaN,NaN,1.1, NaN, NaN
20061104,112804,1.647,34.054060,-122.942420,16.2600,33.3150,0.2600,1250879,2.3,16.507,33.351,42.532, 0.00,0.0,0.922, NaN, NaN, NaN,24.364,   NaN,14.87,1019.75,95.25,14.75,357.1,353.8,7.3,8.2,341.0,337.9,7.6,8.6,4241.0, NaN,33.0,153.3,NaN,1162639688,NaN,2,0.6,041289,   NaN,344.1,     NaN,      NaN,NaN,NaN,NaN,16.511, NaN,NaN,0.4, NaN, NaN